Data start date =,7/1/1937
Data end date/time =,5/2/2024 12:00
Vertical Datum =,MSL1912
""
Date/Time,LACW3
,Elev
UTC,ft
,Ave
7/2/1937 12:00,630.90
7/3/1937 12:00,630.50
7/4/1937 12:00,630.70
7/5/1937 12:00,631.05
7/6/1937 12:00,630.80
7/7/1937 12:00,631.18
7/8/1937 12:00,631.08
7/9/1937 12:00,631.05
7/10/1937 12:00,630.85
7/11/1937 12:00,631.00
7/12/1937 12:00,630.95
7/13/1937 12:00,630.55
7/14/1937 12:00,630.73
7/15/1937 12:00,630.86
7/16/1937 12:00,630.85
7/17/1937 12:00,630.85
7/18/1937 12:00,630.95
7/19/1937 12:00,630.76
7/20/1937 12:00,630.79
7/21/1937 12:00,630.79
7/22/1937 12:00,631.08
7/23/1937 12:00,631.00
7/24/1937 12:00,630.93
7/25/1937 12:00,630.97
7/26/1937 12:00,630.87
7/27/1937 12:00,630.95
7/28/1937 12:00,630.98
7/29/1937 12:00,630.70
7/30/1937 12:00,630.99
7/31/1937 12:00,630.80
8/1/1937 12:00,630.87
8/2/1937 12:00,630.88
8/3/1937 12:00,630.97
8/4/1937 12:00,631.80
8/5/1937 12:00,631.25
8/6/1937 12:00,630.95
8/7/1937 12:00,630.92
8/8/1937 12:00,631.05
8/9/1937 12:00,631.00
8/10/1937 12:00,630.80
8/11/1937 12:00,630.98
8/12/1937 12:00,631.60
8/13/1937 12:00,630.85
8/14/1937 12:00,630.90
8/15/1937 12:00,630.90
8/16/1937 12:00,630.90
8/17/1937 12:00,630.80
8/18/1937 12:00,630.75
8/19/1937 12:00,631.25
8/20/1937 12:00,631.02
8/21/1937 12:00,630.92
8/22/1937 12:00,630.83
8/23/1937 12:00,630.80
8/24/1937 12:00,630.75
8/25/1937 12:00,630.60
8/26/1937 12:00,630.59
8/27/1937 12:00,630.68
8/28/1937 12:00,630.80
8/29/1937 12:00,630.78
8/30/1937 12:00,630.75
8/31/1937 12:00,630.75
9/1/1937 12:00,630.70
9/2/1937 12:00,630.60
9/3/1937 12:00,630.40
9/4/1937 12:00,630.73
9/5/1937 12:00,630.80
9/6/1937 12:00,631.00
9/7/1937 12:00,631.05
9/8/1937 12:00,631.12
9/9/1937 12:00,631.09
9/10/1937 12:00,631.09
9/11/1937 12:00,631.18
9/12/1937 12:00,631.17
9/13/1937 12:00,631.12
9/14/1937 12:00,631.00
9/15/1937 12:00,631.00
9/16/1937 12:00,630.70
9/17/1937 12:00,631.08
9/18/1937 12:00,630.99
9/19/1937 12:00,630.75
9/20/1937 12:00,630.75
9/21/1937 12:00,630.55
9/22/1937 12:00,630.80
9/23/1937 12:00,630.72
9/24/1937 12:00,630.81
9/25/1937 12:00,631.00
9/26/1937 12:00,630.90
9/27/1937 12:00,630.98
9/28/1937 12:00,630.89
9/29/1937 12:00,630.78
9/30/1937 12:00,630.80
10/1/1937 12:00,631.09
10/2/1937 12:00,631.17
10/3/1937 12:00,630.85
10/4/1937 12:00,630.78
10/5/1937 12:00,631.10
10/6/1937 12:00,631.20
10/7/1937 12:00,630.97
10/8/1937 12:00,630.89
10/9/1937 12:00,630.76
10/10/1937 12:00,630.95
10/11/1937 12:00,630.82
10/12/1937 12:00,630.92
10/13/1937 12:00,630.87
10/14/1937 12:00,630.80
10/15/1937 12:00,630.86
10/16/1937 12:00,630.77
10/17/1937 12:00,630.93
10/18/1937 12:00,631.37
10/19/1937 12:00,631.00
10/20/1937 12:00,631.13
10/21/1937 12:00,631.01
10/22/1937 12:00,630.95
10/23/1937 12:00,630.95
10/24/1937 12:00,631.05
10/25/1937 12:00,631.15
10/26/1937 12:00,631.20
10/27/1937 12:00,631.00
10/28/1937 12:00,630.93
10/29/1937 12:00,630.87
10/30/1937 12:00,631.00
10/31/1937 12:00,631.04
11/1/1937 12:00,630.85
11/2/1937 12:00,630.68
11/3/1937 12:00,630.85
11/4/1937 12:00,631.40
11/5/1937 12:00,631.05
11/6/1937 12:00,631.05
11/7/1937 12:00,631.03
11/8/1937 12:00,631.04
11/9/1937 12:00,631.06
11/10/1937 12:00,631.05
11/11/1937 12:00,631.05
11/12/1937 12:00,631.06
11/13/1937 12:00,630.92
11/14/1937 12:00,630.97
11/15/1937 12:00,631.03
11/16/1937 12:00,630.99
11/17/1937 12:00,630.99
11/18/1937 12:00,630.92
11/19/1937 12:00,630.99
11/20/1937 12:00,630.99
11/21/1937 12:00,630.98
11/22/1937 12:00,631.06
11/23/1937 12:00,630.97
11/24/1937 12:00,630.84
11/25/1937 12:00,631.00
11/26/1937 12:00,630.98
11/27/1937 12:00,631.02
11/28/1937 12:00,631.14
11/29/1937 12:00,631.08
11/30/1937 12:00,630.96
12/1/1937 12:00,630.81
12/2/1937 12:00,630.85
12/3/1937 12:00,630.87
12/4/1937 12:00,630.87
12/5/1937 12:00,631.12
12/6/1937 12:00,630.95
12/7/1937 12:00,631.13
12/8/1937 12:00,631.03
12/9/1937 12:00,630.95
12/10/1937 12:00,631.12
12/11/1937 12:00,630.92
12/12/1937 12:00,630.72
12/13/1937 12:00,630.72
12/14/1937 12:00,630.80
12/15/1937 12:00,630.97
12/16/1937 12:00,631.00
12/17/1937 12:00,630.85
12/18/1937 12:00,630.75
12/19/1937 12:00,630.85
12/20/1937 12:00,630.81
12/21/1937 12:00,630.85
12/22/1937 12:00,630.86
12/23/1937 12:00,630.79
12/24/1937 12:00,630.78
12/25/1937 12:00,630.67
12/26/1937 12:00,630.78
12/27/1937 12:00,630.92
12/28/1937 12:00,630.72
12/29/1937 12:00,630.66
12/30/1937 12:00,630.75
12/31/1937 12:00,630.65
1/1/1938 12:00,630.78
1/2/1938 12:00,630.85
1/3/1938 12:00,630.91
1/4/1938 12:00,630.90
1/5/1938 12:00,630.68
1/6/1938 12:00,630.68
1/7/1938 12:00,630.65
1/8/1938 12:00,630.65
1/9/1938 12:00,630.61
1/10/1938 12:00,630.57
1/11/1938 12:00,630.65
1/12/1938 12:00,630.73
1/13/1938 12:00,630.75
1/14/1938 12:00,630.74
1/15/1938 12:00,630.73
1/16/1938 12:00,630.76
1/17/1938 12:00,630.84
1/18/1938 12:00,630.87
1/19/1938 12:00,630.78
1/20/1938 12:00,630.69
1/21/1938 12:00,630.78
1/22/1938 12:00,630.87
1/23/1938 12:00,630.94
1/24/1938 12:00,631.05
1/25/1938 12:00,630.92
1/26/1938 12:00,630.80
1/27/1938 12:00,630.54
1/28/1938 12:00,630.50
1/29/1938 12:00,630.64
1/30/1938 12:00,630.69
1/31/1938 12:00,630.85
2/1/1938 12:00,630.86
2/2/1938 12:00,630.78
2/3/1938 12:00,630.75
2/4/1938 12:00,630.76
2/5/1938 12:00,630.85
2/6/1938 12:00,631.22
2/7/1938 12:00,631.52
2/8/1938 12:00,631.54
2/9/1938 12:00,631.58
2/10/1938 12:00,631.43
2/11/1938 12:00,631.10
2/12/1938 12:00,630.80
2/13/1938 12:00,630.93
2/14/1938 12:00,631.05
2/15/1938 12:00,630.85
2/16/1938 12:00,630.92
2/17/1938 12:00,631.00
2/18/1938 12:00,631.05
2/19/1938 12:00,630.95
2/20/1938 12:00,630.90
2/21/1938 12:00,630.85
2/22/1938 12:00,630.81
2/23/1938 12:00,630.81
2/24/1938 12:00,630.81
2/25/1938 12:00,630.98
2/26/1938 12:00,631.12
2/27/1938 12:00,631.29
2/28/1938 12:00,631.46
3/1/1938 12:00,631.64
3/2/1938 12:00,631.58
3/3/1938 12:00,631.52
3/4/1938 12:00,631.72
3/5/1938 12:00,632.07
3/6/1938 12:00,631.67
3/7/1938 12:00,630.72
3/8/1938 12:00,630.42
3/9/1938 12:00,630.00
3/10/1938 12:00,630.13
3/11/1938 12:00,630.72
3/12/1938 12:00,630.85
3/13/1938 12:00,631.04
3/14/1938 12:00,631.55
3/15/1938 12:00,631.75
3/16/1938 12:00,632.00
3/17/1938 12:00,632.55
3/18/1938 12:00,632.72
3/19/1938 12:00,632.85
3/20/1938 12:00,633.20
3/21/1938 12:00,633.60
3/22/1938 12:00,633.40
3/23/1938 12:00,633.20
3/24/1938 12:00,633.31
3/25/1938 12:00,633.42
3/26/1938 12:00,633.55
3/27/1938 12:00,633.60
3/28/1938 12:00,633.84
3/29/1938 12:00,634.01
3/30/1938 12:00,634.11
3/31/1938 12:00,634.22
4/1/1938 12:00,634.20
4/2/1938 12:00,633.96
4/3/1938 12:00,633.55
4/4/1938 12:00,633.73
4/5/1938 12:00,633.80
4/6/1938 12:00,633.57
4/7/1938 12:00,632.93
4/8/1938 12:00,632.29
4/9/1938 12:00,632.20
4/10/1938 12:00,631.97
4/11/1938 12:00,631.78
4/12/1938 12:00,631.65
4/13/1938 12:00,631.43
4/14/1938 12:00,631.21
4/15/1938 12:00,631.72
4/16/1938 12:00,631.68
4/17/1938 12:00,632.15
4/18/1938 12:00,632.61
4/19/1938 12:00,632.18
4/20/1938 12:00,632.53
4/21/1938 12:00,632.65
4/22/1938 12:00,632.80
4/23/1938 12:00,632.80
4/24/1938 12:00,632.65
4/25/1938 12:00,632.60
4/26/1938 12:00,632.51
4/27/1938 12:00,632.78
4/28/1938 12:00,632.91
4/29/1938 12:00,632.90
4/30/1938 12:00,632.88
5/1/1938 12:00,632.47
5/2/1938 12:00,632.41
5/3/1938 12:00,632.69
5/4/1938 12:00,632.98
5/5/1938 12:00,633.38
5/6/1938 12:00,633.77
5/7/1938 12:00,634.18
5/8/1938 12:00,634.36
5/9/1938 12:00,634.93
5/10/1938 12:00,635.33
5/11/1938 12:00,635.85
5/12/1938 12:00,636.33
5/13/1938 12:00,636.73
5/14/1938 12:00,637.03
5/15/1938 12:00,637.14
5/16/1938 12:00,637.03
5/17/1938 12:00,636.84
5/18/1938 12:00,636.62
5/19/1938 12:00,636.51
5/20/1938 12:00,636.53
5/21/1938 12:00,636.77
5/22/1938 12:00,637.24
5/23/1938 12:00,637.74
5/24/1938 12:00,637.79
5/25/1938 12:00,637.80
5/26/1938 12:00,637.46
5/27/1938 12:00,637.18
5/28/1938 12:00,636.88
5/29/1938 12:00,636.65
5/30/1938 12:00,636.45
5/31/1938 12:00,636.21
6/1/1938 12:00,636.05
6/2/1938 12:00,636.00
6/3/1938 12:00,636.11
6/4/1938 12:00,636.30
6/5/1938 12:00,636.41
6/6/1938 12:00,636.70
6/7/1938 12:00,636.83
6/8/1938 12:00,636.73
6/9/1938 12:00,636.45
6/10/1938 12:00,636.14
6/11/1938 12:00,635.85
6/12/1938 12:00,635.58
6/13/1938 12:00,635.35
6/14/1938 12:00,635.12
6/15/1938 12:00,635.01
6/16/1938 12:00,634.81
6/17/1938 12:00,634.59
6/18/1938 12:00,634.54
6/19/1938 12:00,634.43
6/20/1938 12:00,634.08
6/21/1938 12:00,633.80
6/22/1938 12:00,633.58
6/23/1938 12:00,633.22
6/24/1938 12:00,633.07
6/25/1938 12:00,633.15
6/26/1938 12:00,633.16
6/27/1938 12:00,632.57
6/28/1938 12:00,632.47
6/29/1938 12:00,632.22
6/30/1938 12:00,632.18
7/1/1938 12:00,632.56
7/2/1938 12:00,632.29
7/3/1938 12:00,632.52
7/4/1938 12:00,632.42
7/5/1938 12:00,632.04
7/6/1938 12:00,632.46
7/7/1938 12:00,632.61
7/8/1938 12:00,632.95
7/9/1938 12:00,632.80
7/10/1938 12:00,632.65
7/11/1938 12:00,632.97
7/12/1938 12:00,633.05
7/13/1938 12:00,633.08
7/14/1938 12:00,632.59
7/15/1938 12:00,632.60
7/16/1938 12:00,632.34
7/17/1938 12:00,632.41
7/18/1938 12:00,631.98
7/19/1938 12:00,631.81
7/20/1938 12:00,631.33
7/21/1938 12:00,631.09
7/22/1938 12:00,631.68
7/23/1938 12:00,631.55
7/24/1938 12:00,631.20
7/25/1938 12:00,631.08
7/26/1938 12:00,631.08
7/27/1938 12:00,630.99
7/28/1938 12:00,631.05
7/29/1938 12:00,630.80
7/30/1938 12:00,631.12
7/31/1938 12:00,631.52
8/1/1938 12:00,631.81
8/2/1938 12:00,631.32
8/3/1938 12:00,631.30
8/4/1938 12:00,631.01
8/5/1938 12:00,630.98
8/6/1938 12:00,631.23
8/7/1938 12:00,631.29
8/8/1938 12:00,631.02
8/9/1938 12:00,631.18
8/10/1938 12:00,631.04
8/11/1938 12:00,630.98
8/12/1938 12:00,630.93
8/13/1938 12:00,630.95
8/14/1938 12:00,630.90
8/15/1938 12:00,631.08
8/16/1938 12:00,631.33
8/17/1938 12:00,631.49
8/18/1938 12:00,631.33
8/19/1938 12:00,631.37
8/20/1938 12:00,631.32
8/21/1938 12:00,631.29
8/22/1938 12:00,631.26
8/23/1938 12:00,631.36
8/24/1938 12:00,631.28
8/25/1938 12:00,631.08
8/26/1938 12:00,631.38
8/27/1938 12:00,630.78
8/28/1938 12:00,630.19
8/29/1938 12:00,630.80
8/30/1938 12:00,630.69
8/31/1938 12:00,630.51
9/1/1938 12:00,630.73
9/2/1938 12:00,630.69
9/3/1938 12:00,630.75
9/4/1938 12:00,631.08
9/5/1938 12:00,631.39
9/6/1938 12:00,631.52
9/7/1938 12:00,632.40
9/8/1938 12:00,633.04
9/9/1938 12:00,633.14
9/10/1938 12:00,633.77
9/11/1938 12:00,634.96
9/12/1938 12:00,637.07
9/13/1938 12:00,637.69
9/14/1938 12:00,637.81
9/15/1938 12:00,637.94
9/16/1938 12:00,637.75
9/17/1938 12:00,637.37
9/18/1938 12:00,636.85
9/19/1938 12:00,636.20
9/20/1938 12:00,635.59
9/21/1938 12:00,634.79
9/22/1938 12:00,634.05
9/23/1938 12:00,633.73
9/24/1938 12:00,633.35
9/25/1938 12:00,633.02
9/26/1938 12:00,632.37
9/27/1938 12:00,631.82
9/28/1938 12:00,631.76
9/29/1938 12:00,630.80
9/30/1938 12:00,631.23
10/1/1938 12:00,630.80
10/2/1938 12:00,631.14
10/3/1938 12:00,631.07
10/4/1938 12:00,630.78
10/5/1938 12:00,630.75
10/6/1938 12:00,630.84
10/7/1938 12:00,630.98
10/8/1938 12:00,630.83
10/9/1938 12:00,630.95
10/10/1938 12:00,630.99
10/11/1938 12:00,630.98
10/12/1938 12:00,630.98
10/13/1938 12:00,631.05
10/14/1938 12:00,630.94
10/15/1938 12:00,630.99
10/16/1938 12:00,631.00
10/17/1938 12:00,631.24
10/18/1938 12:00,630.89
10/19/1938 12:00,631.06
10/20/1938 12:00,631.07
10/21/1938 12:00,631.12
10/22/1938 12:00,631.03
10/23/1938 12:00,630.80
10/24/1938 12:00,631.65
10/25/1938 12:00,631.37
10/26/1938 12:00,631.10
10/27/1938 12:00,631.08
10/28/1938 12:00,631.26
10/29/1938 12:00,631.30
10/30/1938 12:00,631.22
10/31/1938 12:00,631.15
11/1/1938 12:00,631.30
11/2/1938 12:00,631.24
11/3/1938 12:00,631.52
11/4/1938 12:00,632.46
11/5/1938 12:00,633.00
11/6/1938 12:00,632.15
11/7/1938 12:00,632.82
11/8/1938 12:00,632.66
11/9/1938 12:00,633.48
11/10/1938 12:00,634.35
11/11/1938 12:00,634.67
11/12/1938 12:00,634.45
11/13/1938 12:00,634.05
11/14/1938 12:00,633.59
11/15/1938 12:00,633.05
11/16/1938 12:00,632.60
11/17/1938 12:00,632.17
11/18/1938 12:00,631.81
11/19/1938 12:00,631.57
11/20/1938 12:00,630.72
11/21/1938 12:00,631.00
11/22/1938 12:00,630.90
11/23/1938 12:00,630.33
11/24/1938 12:00,630.75
11/25/1938 12:00,630.86
11/26/1938 12:00,630.72
11/27/1938 12:00,631.12
11/28/1938 12:00,630.36
11/29/1938 12:00,630.08
11/30/1938 12:00,630.06
12/1/1938 12:00,630.22
12/2/1938 12:00,631.97
12/3/1938 12:00,632.24
12/4/1938 12:00,631.36
12/5/1938 12:00,630.50
12/6/1938 12:00,630.45
12/7/1938 12:00,631.06
12/8/1938 12:00,631.20
12/9/1938 12:00,631.00
12/10/1938 12:00,631.05
12/11/1938 12:00,630.93
12/12/1938 12:00,630.80
12/13/1938 12:00,630.63
12/14/1938 12:00,631.55
12/15/1938 12:00,630.66
12/16/1938 12:00,630.30
12/17/1938 12:00,630.30
12/18/1938 12:00,630.65
12/19/1938 12:00,630.75
12/20/1938 12:00,630.74
12/21/1938 12:00,631.30
12/22/1938 12:00,631.06
12/23/1938 12:00,631.28
12/24/1938 12:00,631.00
12/25/1938 12:00,631.03
12/26/1938 12:00,631.07
12/27/1938 12:00,631.10
12/28/1938 12:00,630.64
12/29/1938 12:00,630.60
12/30/1938 12:00,630.64
12/31/1938 12:00,630.72
1/1/1939 12:00,631.12
1/2/1939 12:00,631.15
1/3/1939 12:00,631.09
1/4/1939 12:00,631.28
1/5/1939 12:00,631.38
1/6/1939 12:00,631.97
1/7/1939 12:00,631.25
1/8/1939 12:00,631.43
1/9/1939 12:00,631.33
1/10/1939 12:00,631.82
1/11/1939 12:00,631.99
1/12/1939 12:00,631.80
1/13/1939 12:00,631.90
1/14/1939 12:00,631.75
1/15/1939 12:00,631.61
1/16/1939 12:00,631.40
1/17/1939 12:00,631.33
1/18/1939 12:00,630.79
1/19/1939 12:00,630.90
1/20/1939 12:00,631.15
1/21/1939 12:00,630.96
1/22/1939 12:00,631.13
1/23/1939 12:00,631.22
1/24/1939 12:00,631.43
1/25/1939 12:00,631.43
1/26/1939 12:00,631.42
1/27/1939 12:00,631.52
1/28/1939 12:00,631.64
1/29/1939 12:00,631.55
1/30/1939 12:00,631.39
1/31/1939 12:00,631.33
2/1/1939 12:00,631.26
2/2/1939 12:00,630.89
2/3/1939 12:00,630.86
2/4/1939 12:00,630.96
2/5/1939 12:00,631.01
2/6/1939 12:00,631.17
2/7/1939 12:00,631.17
2/8/1939 12:00,631.01
2/9/1939 12:00,630.85
2/10/1939 12:00,630.84
2/11/1939 12:00,630.80
2/12/1939 12:00,630.81
2/13/1939 12:00,630.80
2/14/1939 12:00,630.92
2/15/1939 12:00,631.17
2/16/1939 12:00,631.02
2/17/1939 12:00,631.00
2/18/1939 12:00,630.92
2/19/1939 12:00,631.07
2/20/1939 12:00,631.21
2/21/1939 12:00,631.27
2/22/1939 12:00,631.29
2/23/1939 12:00,631.20
2/24/1939 12:00,631.02
2/25/1939 12:00,630.96
2/26/1939 12:00,630.94
2/27/1939 12:00,630.91
2/28/1939 12:00,630.92
3/1/1939 12:00,631.11
3/2/1939 12:00,631.19
3/3/1939 12:00,631.12
3/4/1939 12:00,631.11
3/5/1939 12:00,631.10
3/6/1939 12:00,631.15
3/7/1939 12:00,631.19
3/8/1939 12:00,631.35
3/9/1939 12:00,631.23
3/10/1939 12:00,631.13
3/11/1939 12:00,631.05
3/12/1939 12:00,630.91
3/13/1939 12:00,631.34
3/14/1939 12:00,631.54
3/15/1939 12:00,631.87
3/16/1939 12:00,632.21
3/17/1939 12:00,632.21
3/18/1939 12:00,631.20
3/19/1939 12:00,631.17
3/20/1939 12:00,631.66
3/21/1939 12:00,632.93
3/22/1939 12:00,633.85
3/23/1939 12:00,634.41
3/24/1939 12:00,634.33
3/25/1939 12:00,635.65
3/26/1939 12:00,636.10
3/27/1939 12:00,636.33
3/28/1939 12:00,636.59
3/29/1939 12:00,636.59
3/30/1939 12:00,636.56
3/31/1939 12:00,636.78
4/1/1939 12:00,637.00
4/2/1939 12:00,636.97
4/3/1939 12:00,636.93
4/4/1939 12:00,636.82
4/5/1939 12:00,636.79
4/6/1939 12:00,636.65
4/7/1939 12:00,636.46
4/8/1939 12:00,636.30
4/9/1939 12:00,636.07
4/10/1939 12:00,635.85
4/11/1939 12:00,635.65
4/12/1939 12:00,635.41
4/13/1939 12:00,635.15
4/14/1939 12:00,634.91
4/15/1939 12:00,634.54
4/16/1939 12:00,634.35
4/17/1939 12:00,634.26
4/18/1939 12:00,634.40
4/19/1939 12:00,634.31
4/20/1939 12:00,634.66
4/21/1939 12:00,634.92
4/22/1939 12:00,635.00
4/23/1939 12:00,635.07
4/24/1939 12:00,635.20
4/25/1939 12:00,635.25
4/26/1939 12:00,635.39
4/27/1939 12:00,635.38
4/28/1939 12:00,635.21
4/29/1939 12:00,635.06
4/30/1939 12:00,634.91
5/1/1939 12:00,634.78
5/2/1939 12:00,634.61
5/3/1939 12:00,634.37
5/4/1939 12:00,634.06
5/5/1939 12:00,633.78
5/6/1939 12:00,633.47
5/7/1939 12:00,633.35
5/8/1939 12:00,633.19
5/9/1939 12:00,632.82
5/10/1939 12:00,632.44
5/11/1939 12:00,632.44
5/12/1939 12:00,632.26
5/13/1939 12:00,632.18
5/14/1939 12:00,631.91
5/15/1939 12:00,631.45
5/16/1939 12:00,630.85
5/17/1939 12:00,631.07
5/18/1939 12:00,630.58
5/19/1939 12:00,630.83
5/20/1939 12:00,630.93
5/21/1939 12:00,630.79
5/22/1939 12:00,630.66
5/23/1939 12:00,630.75
5/24/1939 12:00,630.78
5/25/1939 12:00,630.85
5/26/1939 12:00,630.97
5/27/1939 12:00,631.92
5/28/1939 12:00,632.05
5/29/1939 12:00,632.20
5/30/1939 12:00,631.35
5/31/1939 12:00,631.90
6/1/1939 12:00,632.32
6/2/1939 12:00,631.96
6/3/1939 12:00,632.03
6/4/1939 12:00,632.02
6/5/1939 12:00,631.76
6/6/1939 12:00,631.70
6/7/1939 12:00,631.57
6/8/1939 12:00,631.56
6/9/1939 12:00,631.53
6/10/1939 12:00,631.18
6/11/1939 12:00,631.30
6/12/1939 12:00,631.10
6/13/1939 12:00,631.28
6/14/1939 12:00,631.46
6/15/1939 12:00,631.92
6/16/1939 12:00,632.40
6/17/1939 12:00,632.35
6/18/1939 12:00,632.43
6/19/1939 12:00,632.52
6/20/1939 12:00,632.76
6/21/1939 12:00,632.68
6/22/1939 12:00,633.05
6/23/1939 12:00,633.48
6/24/1939 12:00,633.67
6/25/1939 12:00,634.01
6/26/1939 12:00,634.30
6/27/1939 12:00,634.52
6/28/1939 12:00,634.23
6/29/1939 12:00,633.38
6/30/1939 12:00,633.39
7/1/1939 12:00,632.90
7/2/1939 12:00,632.07
7/3/1939 12:00,631.58
7/4/1939 12:00,631.64
7/5/1939 12:00,631.25
7/6/1939 12:00,631.06
7/7/1939 12:00,631.00
7/8/1939 12:00,631.22
7/9/1939 12:00,631.24
7/10/1939 12:00,631.01
7/11/1939 12:00,630.66
7/12/1939 12:00,630.75
7/13/1939 12:00,631.05
7/14/1939 12:00,631.14
7/15/1939 12:00,631.08
7/16/1939 12:00,630.92
7/17/1939 12:00,631.08
7/18/1939 12:00,631.29
7/19/1939 12:00,631.07
7/20/1939 12:00,630.88
7/21/1939 12:00,630.84
7/22/1939 12:00,630.73
7/23/1939 12:00,630.65
7/24/1939 12:00,630.59
7/25/1939 12:00,630.71
7/26/1939 12:00,630.75
7/27/1939 12:00,630.80
7/28/1939 12:00,630.95
7/29/1939 12:00,631.01
7/30/1939 12:00,630.98
7/31/1939 12:00,630.93
8/1/1939 12:00,630.85
8/2/1939 12:00,631.02
8/3/1939 12:00,630.78
8/4/1939 12:00,630.85
8/5/1939 12:00,630.98
8/6/1939 12:00,631.03
8/7/1939 12:00,630.99
8/8/1939 12:00,631.02
8/9/1939 12:00,631.05
8/10/1939 12:00,631.01
8/11/1939 12:00,631.30
8/12/1939 12:00,631.36
8/13/1939 12:00,631.35
8/14/1939 12:00,631.03
8/15/1939 12:00,630.82
8/16/1939 12:00,631.01
8/17/1939 12:00,631.06
8/18/1939 12:00,631.04
8/19/1939 12:00,631.15
8/20/1939 12:00,631.14
8/21/1939 12:00,631.85
8/22/1939 12:00,631.62
8/23/1939 12:00,630.95
8/24/1939 12:00,630.95
8/25/1939 12:00,630.95
8/26/1939 12:00,631.06
8/27/1939 12:00,631.12
8/28/1939 12:00,631.13
8/29/1939 12:00,631.12
8/30/1939 12:00,631.20
8/31/1939 12:00,631.04
9/1/1939 12:00,631.05
9/2/1939 12:00,631.11
9/3/1939 12:00,631.05
9/4/1939 12:00,631.03
9/5/1939 12:00,631.05
9/6/1939 12:00,631.15
9/7/1939 12:00,631.13
9/8/1939 12:00,631.00
9/9/1939 12:00,631.14
9/10/1939 12:00,631.15
9/11/1939 12:00,631.06
9/12/1939 12:00,631.13
9/13/1939 12:00,631.65
9/14/1939 12:00,631.57
9/15/1939 12:00,631.05
9/16/1939 12:00,631.16
9/17/1939 12:00,631.18
9/18/1939 12:00,631.13
9/19/1939 12:00,631.01
9/20/1939 12:00,630.88
9/21/1939 12:00,630.95
9/22/1939 12:00,631.05
9/23/1939 12:00,631.08
9/24/1939 12:00,630.82
9/25/1939 12:00,630.92
9/26/1939 12:00,630.82
9/27/1939 12:00,631.28
9/28/1939 12:00,631.30
9/29/1939 12:00,631.28
9/30/1939 12:00,631.15
10/1/1939 12:00,631.15
10/2/1939 12:00,631.18
10/3/1939 12:00,631.03
10/4/1939 12:00,630.87
10/5/1939 12:00,630.84
10/6/1939 12:00,630.78
10/7/1939 12:00,630.86
10/8/1939 12:00,630.89
10/9/1939 12:00,630.92
10/10/1939 12:00,630.82
10/11/1939 12:00,630.89
10/12/1939 12:00,631.03
10/13/1939 12:00,631.20
10/14/1939 12:00,631.18
10/15/1939 12:00,631.34
10/16/1939 12:00,631.20
10/17/1939 12:00,631.15
10/18/1939 12:00,631.15
10/19/1939 12:00,630.97
10/20/1939 12:00,630.93
10/21/1939 12:00,630.87
10/22/1939 12:00,630.79
10/23/1939 12:00,630.77
10/24/1939 12:00,630.90
10/25/1939 12:00,630.91
10/26/1939 12:00,630.90
10/27/1939 12:00,630.85
10/28/1939 12:00,630.86
10/29/1939 12:00,630.94
10/30/1939 12:00,630.86
10/31/1939 12:00,630.98
11/1/1939 12:00,630.88
11/2/1939 12:00,630.89
11/3/1939 12:00,630.90
11/4/1939 12:00,630.86
11/5/1939 12:00,630.71
11/6/1939 12:00,630.65
11/7/1939 12:00,630.60
11/8/1939 12:00,630.56
11/9/1939 12:00,630.73
11/10/1939 12:00,630.57
11/11/1939 12:00,630.52
11/12/1939 12:00,630.55
11/13/1939 12:00,630.58
11/14/1939 12:00,630.61
11/15/1939 12:00,630.65
11/16/1939 12:00,630.69
11/17/1939 12:00,630.70
11/18/1939 12:00,630.65
11/19/1939 12:00,630.67
11/20/1939 12:00,630.71
11/21/1939 12:00,630.73
11/22/1939 12:00,630.75
11/23/1939 12:00,630.86
11/24/1939 12:00,630.81
11/25/1939 12:00,630.75
11/26/1939 12:00,630.85
11/27/1939 12:00,630.76
11/28/1939 12:00,630.76
11/29/1939 12:00,630.88
11/30/1939 12:00,630.72
12/1/1939 12:00,630.72
12/2/1939 12:00,630.89
12/3/1939 12:00,630.80
12/4/1939 12:00,630.85
12/5/1939 12:00,630.80
12/6/1939 12:00,630.78
12/7/1939 12:00,630.65
12/8/1939 12:00,630.73
12/9/1939 12:00,630.84
12/10/1939 12:00,630.86
12/11/1939 12:00,630.95
12/12/1939 12:00,630.95
12/13/1939 12:00,630.87
12/14/1939 12:00,630.90
12/15/1939 12:00,630.92
12/16/1939 12:00,630.95
12/17/1939 12:00,630.97
12/18/1939 12:00,630.96
12/19/1939 12:00,630.98
12/20/1939 12:00,630.95
12/21/1939 12:00,630.90
12/22/1939 12:00,630.95
12/23/1939 12:00,630.86
12/24/1939 12:00,630.65
12/25/1939 12:00,630.53
12/26/1939 12:00,630.48
12/27/1939 12:00,630.67
12/28/1939 12:00,630.79
12/29/1939 12:00,630.81
12/30/1939 12:00,630.84
12/31/1939 12:00,630.84
1/1/1940 12:00,630.80
1/2/1940 12:00,630.67
1/3/1940 12:00,630.58
1/4/1940 12:00,630.55
1/5/1940 12:00,630.53
1/6/1940 12:00,630.46
1/7/1940 12:00,630.45
1/8/1940 12:00,630.46
1/9/1940 12:00,630.48
1/10/1940 12:00,630.50
1/11/1940 12:00,630.59
1/12/1940 12:00,630.60
1/13/1940 12:00,630.67
1/14/1940 12:00,630.77
1/15/1940 12:00,630.82
1/16/1940 12:00,630.86
1/17/1940 12:00,630.90
1/18/1940 12:00,630.94
1/19/1940 12:00,630.89
1/20/1940 12:00,630.79
1/21/1940 12:00,630.82
1/22/1940 12:00,630.87
1/23/1940 12:00,630.93
1/24/1940 12:00,630.95
1/25/1940 12:00,630.93
1/26/1940 12:00,630.91
1/27/1940 12:00,630.89
1/28/1940 12:00,630.87
1/29/1940 12:00,630.87
1/30/1940 12:00,630.84
1/31/1940 12:00,630.85
2/1/1940 12:00,630.83
2/2/1940 12:00,630.80
2/3/1940 12:00,630.84
2/4/1940 12:00,630.91
2/5/1940 12:00,630.90
2/6/1940 12:00,630.90
2/7/1940 12:00,630.94
2/8/1940 12:00,630.89
2/9/1940 12:00,630.88
2/10/1940 12:00,630.87
2/11/1940 12:00,630.85
2/12/1940 12:00,630.82
2/13/1940 12:00,630.82
2/14/1940 12:00,630.87
2/15/1940 12:00,630.90
2/16/1940 12:00,630.86
2/17/1940 12:00,630.77
2/18/1940 12:00,630.74
2/19/1940 12:00,630.78
2/20/1940 12:00,630.91
2/21/1940 12:00,631.01
2/22/1940 12:00,630.96
2/23/1940 12:00,630.86
2/24/1940 12:00,630.93
2/25/1940 12:00,630.87
2/26/1940 12:00,630.84
2/27/1940 12:00,630.83
2/28/1940 12:00,630.86
2/29/1940 12:00,630.88
3/1/1940 12:00,630.89
3/2/1940 12:00,630.90
3/3/1940 12:00,630.98
3/4/1940 12:00,631.04
3/5/1940 12:00,630.98
3/6/1940 12:00,630.97
3/7/1940 12:00,630.94
3/8/1940 12:00,630.82
3/9/1940 12:00,630.90
3/10/1940 12:00,630.88
3/11/1940 12:00,630.94
3/12/1940 12:00,631.02
3/13/1940 12:00,630.87
3/14/1940 12:00,630.96
3/15/1940 12:00,630.85
3/16/1940 12:00,630.85
3/17/1940 12:00,630.69
3/18/1940 12:00,630.71
3/19/1940 12:00,631.06
3/20/1940 12:00,630.66
3/21/1940 12:00,630.58
3/22/1940 12:00,630.62